Bloomington, IL

4:48 AM CDT on April 24, 2018 (GMT -0500)
Central Ill Regional

Weather History for KBMI - January, 2013

Change the Weather History Date:

Thursday, January 3, 2013

  Actual Average Record
Temperature  
Mean Temperature 24 °F -  
Max Temperature 30 °F 20 °F 57 °F (1998)
Min Temperature 15 °F 5 °F -8 °F (1979)
Degree Days  
Heating Degree Days 42    
Moisture  
Dew Point 18 °F    
Average Humidity 81    
Maximum Humidity 93    
Minimum Humidity 69    
Precipitation  
Precipitation 0.00 in - - ()
Sea Level Pressure  
Sea Level Pressure 30.29 in    
Wind  
Wind Speed 11 mph (WSW)    
Max Wind Speed 22 mph    
Max Gust Speed -    
Visibility 9 miles    
Events      
Averages and records for this station are not official NWS values.
T = Trace of Precipitation, MM = Missing Value Source: NWS Daily Summary

Daily Weather History Graph

Daily Weather History Graph

Search for Another Location

Airport or City:

Astronomy

Jan. 03, 2013 Rise Set
Actual Time 7:19 AM CST 4:41 PM CST
Civil Twilight 6:48 AM CST 5:12 PM CST
Nautical Twilight 6:14 AM CST 5:46 PM CST
Astronomical Twilight 5:41 AM CST 6:19 PM CST
Moon 11:18 PM CST (1/3) 10:29 AM CST (1/3)
Length of Visible Light 10h 23m
Length of Day
9h 22m
Waning Gibbous, 65% of the Moon is Illuminated
Jan 3
Waning Gibbous
Jan 4
Last Quarter
Jan 11
New
Jan 18
First Quarter
Jan 26
Full

Hourly Weather History & Observations

Time (CST) Temp. Windchill Dew Point Humidity Pressure Visibility Wind Dir Wind Speed Gust Speed Precip Events Conditions
12:56 AM 17.1 °F 3.6 °F 11.1 °F 77% 30.22 in 9.0 mi SW 12.7 mph - N/A   Mostly Cloudy
1:56 AM 19.0 °F 6.8 °F 14.0 °F 81% 30.22 in 9.0 mi SW 11.5 mph - N/A   Overcast
2:56 AM 20.1 °F 8.1 °F 15.1 °F 81% 30.23 in 9.0 mi WSW 11.5 mph - N/A   Overcast
3:34 AM 19.4 °F 8.6 °F 15.8 °F 86% 30.16 in 9.0 mi WSW 9.2 mph - N/A   Overcast
3:56 AM 21.0 °F 9.9 °F 16.2 °F 81% 30.24 in 9.0 mi WSW 10.4 mph - N/A   Overcast
4:56 AM 20.1 °F 9.5 °F 16.2 °F 85% 30.25 in 8.0 mi SW 9.2 mph - N/A   Mostly Cloudy
5:09 AM 19.4 °F 8.6 °F 15.8 °F 86% 30.17 in 8.0 mi SW 9.2 mph - N/A   Scattered Clouds
5:29 AM 19.4 °F 9.5 °F 17.6 °F 93% 30.18 in 8.0 mi WSW 8.1 mph - N/A   Mostly Cloudy
5:56 AM 21.0 °F 10.6 °F 18.1 °F 89% 30.26 in 8.0 mi SW 9.2 mph - N/A   Overcast
6:26 AM 21.2 °F 10.9 °F 19.4 °F 93% 30.18 in 7.0 mi WSW 9.2 mph - N/A   Overcast
7:56 AM 24.1 °F 13.7 °F 21.0 °F 88% 30.27 in 6.0 mi WSW 10.4 mph - N/A   Overcast
8:56 AM 25.2 °F 15.1 °F 22.1 °F 88% 30.30 in 6.0 mi WSW 10.4 mph - N/A   Overcast
9:56 AM 27.1 °F 18.2 °F 23.0 °F 84% 30.32 in 7.0 mi West 9.2 mph - N/A   Overcast
10:56 AM 28.0 °F 17.5 °F 24.1 °F 85% 30.32 in 8.0 mi West 12.7 mph - N/A   Overcast
11:11 AM 28.4 °F 18.5 °F 24.8 °F 86% 30.25 in 8.0 mi West 11.5 mph - N/A   Overcast
11:56 AM 29.1 °F 20.6 °F 25.2 °F 85% 30.31 in 8.0 mi WSW 9.2 mph - N/A   Overcast
12:56 PM 29.1 °F 18.9 °F 25.2 °F 85% 30.30 in 10.0 mi West 12.7 mph - N/A   Overcast
1:56 PM 30.0 °F 21.1 °F 25.2 °F 82% 30.30 in 10.0 mi West 10.4 mph - N/A   Overcast
2:56 PM 30.0 °F 16.9 °F 23.0 °F 75% 30.32 in 10.0 mi West 21.9 mph - N/A   Overcast
3:56 PM 29.1 °F 18.4 °F 23.0 °F 78% 30.33 in 10.0 mi West 13.8 mph - N/A   Overcast
4:33 PM 28.4 °F 18.0 °F 19.4 °F 69% 30.27 in 10.0 mi West 12.7 mph - N/A   Overcast
4:56 PM 26.1 °F 13.1 °F 18.1 °F 72% 30.35 in 10.0 mi West 17.3 mph - N/A   Partly Cloudy
5:56 PM 24.1 °F 13.1 °F 16.2 °F 72% 30.37 in 9.0 mi West 11.5 mph - N/A   Clear
6:56 PM 23.0 °F 11.7 °F 15.1 °F 72% 30.39 in 10.0 mi West 11.5 mph - N/A   Clear
7:56 PM 19.0 °F 7.5 °F 13.1 °F 78% 30.40 in 10.0 mi WNW 10.4 mph - N/A   Clear
8:56 PM 20.1 °F 9.5 °F 13.1 °F 74% 30.40 in 10.0 mi West 9.2 mph - N/A   Clear
9:56 PM 19.0 °F 8.2 °F 13.1 °F 78% 30.40 in 10.0 mi West 9.2 mph - N/A   Clear
10:56 PM 17.1 °F 5.0 °F 11.1 °F 77% 30.40 in 10.0 mi West 10.4 mph - N/A   Clear
11:56 PM 15.1 °F 3.3 °F 10.0 °F 80% 30.39 in 10.0 mi WNW 9.2 mph - N/A   Clear